Nantucket, Massachusetts, United States (02554)
Lat: 41.28N, Lon: 70.1W
Wx Zone: MAZ024
Local Info
Past Weather Observations for Today

NOTE: This archive is for the closest National Weather Service station to Nantucket. Information may differ from the station used for current weather conditions.

Click here for Long-term Archive

Time Weather Temperature Dewpoint Humidity Pressure Winds Precip Visibility
16:53
Overcast
Light Rain
61°F / 16°C 59°F / 15°C 94% 30.01 in
(1016 mb)
NE 13.8 mph
(NE 22 kph)
0.02 in
(0.51 mm)
10SM
16:51
Overcast
Light Rain
61°F / 16°C 59°F / 15°C 94% 30.01 in
(1016 mb)
NE 15 mph
(NE 24 kph)
0.02 in
(0.51 mm)
10SM
15:53
Overcast
Light Rain
61°F / 16°C 61°F / 16°C 100% 29.98 in
(1015 mb)
NE 17.3 mph
(NE 28 kph)
0.03 in
(0.76 mm)
4SM
14:53
Overcast
Light Rain
61°F / 16°C 61°F / 16°C 100% 29.98 in
(1015 mb)
NE 18.4 mph
(NE 30 kph)
0.12 in
(3.05 mm)
7SM
13:53
Overcast
Light Rain
63°F / 17°C 61°F / 16°C 94% 29.98 in
(1015 mb)
NE 16.1 mph
(NE 26 kph)
0.10 in
(2.54 mm)
3SM
13:46
Overcast
Heavy Rain
63°F / 17°C 61°F / 16°C 94% 29.98 in
(1015 mb)
NE 13.8 mph
(NE 22 kph)
0.09 in
(2.29 mm)
2SM
12:53
Overcast
63°F / 17°C 61°F / 16°C 94% 29.98 in
(1015 mb)
NE 18.4 mph
(NE 30 kph)
0.00 in
(0.00 mm)
9SM
11:53
Overcast
63°F / 17°C 61°F / 16°C 94% 29.98 in
(1015 mb)
NNE 15 mph
(NNE 24 kph)
0.00 in
(0.00 mm)
10SM
10:53
Overcast
Light Rain
63°F / 17°C 61°F / 16°C 94% 29.98 in
(1015 mb)
NE 17.3 mph
(NE 28 kph)
0.00 in
(0.00 mm)
10SM
09:53
Overcast
63°F / 17°C 61°F / 16°C 94% 29.98 in
(1015 mb)
NE 13.8 mph
(NE 22 kph)
- 10SM
08:53
Overcast
Fog And Mist
63°F / 17°C 61°F / 16°C 94% 29.98 in
(1015 mb)
NE 17.3 mph
(NE 28 kph)
0.01 in
(0.25 mm)
4SM
07:53
Overcast
63°F / 17°C 61°F / 16°C 94% 29.98 in
(1015 mb)
NE 13.8 mph
(NE 22 kph)
0.00 in
(0.00 mm)
10SM
06:53
Overcast
63°F / 17°C 61°F / 16°C 94% 29.98 in
(1015 mb)
NE 15 mph
(NE 24 kph)
- 9SM
06:28
Overcast
63°F / 17°C 61°F / 16°C 94% 29.95 in
(1014 mb)
NE 15 mph
(NE 24 kph)
- 9SM
05:53
Overcast
63°F / 17°C 61°F / 16°C 94% 29.98 in
(1015 mb)
NE 15 mph
(NE 24 kph)
- 10SM
04:53
Overcast
63°F / 17°C 61°F / 16°C 94% 29.95 in
(1014 mb)
NNE 17.3 mph
(NNE 28 kph)
0.00 in
(0.00 mm)
9SM
03:53
Overcast
63°F / 17°C 61°F / 16°C 94% 29.95 in
(1014 mb)
NE 13.8 mph
(NE 22 kph)
0.00 in
(0.00 mm)
9SM
03:45
Overcast
63°F / 17°C 61°F / 16°C 94% 29.95 in
(1014 mb)
NE 12.7 mph
(NE 20 kph)
0.00 in
(0.00 mm)
9SM
03:30
Overcast
63°F / 17°C 61°F / 16°C 94% 29.95 in
(1014 mb)
NE 16.1 mph
(NE 26 kph)
0.00 in
(0.00 mm)
10SM
03:16
Overcast
Light Rain
63°F / 17°C 61°F / 16°C 94% 29.95 in
(1014 mb)
NE 16.1 mph
(NE 26 kph)
0.00 in
(0.00 mm)
10SM
02:53
Overcast
Light Rain
63°F / 17°C 61°F / 16°C 94% 29.95 in
(1014 mb)
NNE 12.7 mph
(NNE 20 kph)
0.05 in
(1.27 mm)
10SM
02:42
Overcast
Light Rain
63°F / 17°C 61°F / 16°C 94% 29.95 in
(1014 mb)
NNE 12.7 mph
(NNE 20 kph)
0.04 in
(1.02 mm)
10SM
01:53
Overcast
Light Rain
63°F / 17°C 61°F / 16°C 94% 29.95 in
(1014 mb)
NNE 17.3 mph
(NNE 28 kph)
0.14 in
(3.56 mm)
6SM
00:53
Overcast
Light Rain
63°F / 17°C 61°F / 16°C 94% 29.95 in
(1014 mb)
NNE 16.1 mph
(NNE 26 kph)
0.01 in
(0.25 mm)
8SM
Time Weather Temperature Dewpoint Humidity Pressure Winds Precip Visibility


Weather for websites

WeatherForYou.com, LLC is not responsible for any damages or problems caused by this service. Current weather conditions are obtained from the closest station including government and personal stations which may have varying degrees of accuracy. Weather forecasts are derived from the NOAA NDFD. Like all things, this site belongs to Jesus Christ... He just trusts me to maintain it. If you have any questions or comments email webmaster@weatherforyou.com

Copyright © 2014, WeatherForYou.com LLC. All rights reserved.